PILOTS ONLINE: 153    ATC ONLINE: 11

KHHR

Jack Northrop Field Hawthorne Municipal Airport

Location

City Hawthorne
Country  United States
Latitude 33° 55' 22" N
Longitude 118° 20' 5" W
Elevation 66 ft
Type Medium Airport

Map

Weather

METAR
2014/09/17 06:53
KHHR 170653Z AUTO 00000KT 10SM CLR 26/14 A2973 RMK AO2 SLP064 T02610144
TAF
No TAF available

Runways

07/25 4956 ft / 100 ft

Outbound flights

Callsign Flying to Pilot ATD/STD ETA Aircraft

Inbound flights

Callsign Flying from Pilot ATD ETA Aircraft